Showing default

TOPO 1, 4363

Orbit data source: Space-Track

TOPO 1, 4363 is a payload satellite owned by USA ETL (US) in SSO that was launched on Wed, 08 Apr 1970 UTC via a THORAD SLV-2G AGENA D launch vehicle from the Air Force Western Test Range (AFWTR). Payload-class satellites include a variety of spacecraft equipped with specific instruments for various scientific and technological missions. These include communications satellites like Starlink; space stations such as the ISS; scientific satellites like the Hubble; Earth observation satellites from companies like Planet Labs, Umbra, and HawkEye 360; GPS; miniature CubeSats for education and research; and military/defense satellites.

Loading next visibility...
Identifier
4363, 1970-025B
Orbit
SSO
Country
Flag of USUS
Related business
Manufacturer
ITT
Mission
Spacecraft
Bus & Motor
SECOR, Unknown motor
Mass
18 kg wet, 18 kg dry
Launch date (UTC)
1970-04-08 (56 years ago)
Launch vehicle
THORAD SLV-2G AGENA D
Launch site
Air Force Western Test Range (AFWTR)
Object type
Payload
Rocket body
Debris
Shape & HBR
Unknown
Radar Cross Section
Medium (>0.1 m² and <1 m²)

Expand to show TLE details & history
Last TLE update: 8 hours ago

TLE from 8 hours ago
0 TOPO 1
1  4363U 70025B   25298.50713794 -.00000004  00000-0  67619-4 0  9990
2  4363  99.8878 210.4798 0001611 190.6389 342.5204 13.46686078729606
Epoch: 2025-10-25T12:10Z
TLE epoch observation values (Epoch: 2025-10-25T12:10:16.718Z)
Latitude
6.67241°
Longitude
174.93588°
Altitude
1,085.487 km
Speed
7.31 km/s
True Right ascension
02h 06m 34s
True Declination
6° 38' 04"
Sunlit
Object was in full shadow at epoch
Visualization orbit readout
Latitude
Unknown
Longitude
Unknown
Altitude
Unknown
Speed
Unknown
Apparent Right ascension
Unknown
Apparent Declination
Unknown
Sunlit
N/A
Visualization observer readout
Local Sidereal Time
15:51:10
Azimuth
Unknown
Elevation
Unknown
Doppler factor
Unknown
Orbital elements
Apogee altitude
1,082.993 km
Perigee altitude
1,080.59 km
Semi-major axis
7,459.929 km
Eccentricity
0.00016
Inclination
99.8878°
RAAN
210.4798°
Arg. of periapsis
190.6389°
True anomaly
342.51485°
Mean anomaly
342.5204°
Eccentric anomaly
342.51763°
Mean motion
3.36854 °/min
Orbital period
106.87 mins
BSTAR
0.000067619

Documentation

Showing up to 5 results
|